This demonstration page uses our WeatherBlox Daily Observations layout. Learn more.

Left ArrowRight Arrow

Hourly Observations for June 21, 2021

Temp ( °F °C ) Dew Point ( °F °C ) Humidity (%) Winds ( mph kmh ) Pressure ( in mb ) Visibility ( mi km ) Precip ( " mm )
12:53 am 00:53 Clear 79 26.1 41 5 26 26 NNW 3 6 29.75 1007 10 16 0.00 0.00
1:53 am 01:53 Clear 76 24.4 42 5.6 30 30 NW 6 9 29.75 1008 10 16 0.00 0.00
2:53 am 02:53 Clear 73 22.8 43 6.1 34 34 Calm 29.76 1008 10 16 0.00 0.00
3:53 am 03:53 Clear 70 21.1 45 7.2 41 41 E 3 6 29.77 1008 10 16 0.00 0.00
4:53 am 04:53 Clear 70 21.1 43 6.1 38 38 Calm 29.78 1008 10 16 0.00 0.00
5:53 am 05:53 Sunny 67 19.4 45 7.2 45 45 Calm 29.79 1009 10 16 0.00 0.00
6:53 am 06:53 Sunny 71 21.7 47 8.3 42 42 Calm 29.81 1009 10 16 0.00 0.00
7:53 am 07:53 Sunny 77 25 51 10.6 40 40 Calm 29.82 1010 10 16 0.00 0.00
8:53 am 08:53 Sunny 81 27.2 44 6.7 27 27 SW 7 11 29.82 1010 10 16 0.00 0.00
9:53 am 09:53 Sunny 84 28.9 45 7.2 25 25 SSW 5 7 29.82 1010 10 16 0.00 0.00
10:53 am 10:53 Sunny 88 31.1 44 6.7 22 22 VRB 5 7 29.81 1010 10 16 0.00 0.00
11:53 am 11:53 Sunny 92 33.3 44 6.7 19 19 SSE 6 9 29.81 1009 10 16 0.00 0.00
12:53 pm 12:53 Sunny 95 35 43 6.1 17 17 SSE 12 19 29.80 1009 10 16 0.00 0.00
1:53 pm 13:53 Sunny 96 35.6 39 3.9 14 14 SE 13 20 29.79 1009 10 16 0.00 0.00
2:53 pm 14:53 Sunny 98 36.7 39 3.9 13 13 SSE 14 22 29.78 1009 10 16 0.00 0.00
3:53 pm 15:53 Sunny 98 36.7 34 1.1 11 11 S 13 20 29.77 1008 10 16 0.00 0.00
4:53 pm 16:53 Sunny 98 36.7 41 5 14 14 S 16 26 29.76 1008 10 16 0.00 0.00
5:53 pm 17:53 Sunny 97 36.1 40 4.4 14 14 S 14 22 29.75 1008 10 16 0.00 0.00
6:53 pm 18:53 Sunny 96 35.6 41 5 15 15 S 10 17 29.75 1007 10 16 0.00 0.00
7:53 pm 19:53 Sunny 94 34.4 41 5 16 16 S 9 15 29.75 1008 10 16 0.00 0.00
8:53 pm 20:53 Clear 91 32.8 43 6.1 19 19 SSW 7 11 29.75 1008 10 16 0.00 0.00
9:53 pm 21:53 Clear 88 31.1 47 8.3 24 24 SSW 10 17 29.77 1008 10 16 0.00 0.00
10:53 pm 22:53 Clear 86 30 48 8.9 27 27 SSW 5 7 29.78 1009 10 16 0.00 0.00
11:53 pm 23:53 Clear 84 28.9 50 10 31 31 W 6 9 29.79 1009 10 16 0.00 0.00

Powered by AerisWeather